Flag for U.S.A. Weather past 2 weeks in Breckenridge, Colorado, U.S.A.

Now
23 °F

Sunny.


Feels Like: 18 °F
Forecast: 10 / 42 °F
Wind: 3 mph from West

Location: Copper Mountain - Red Cliff Pass

Current Time: Mar 6, 2015 at 10:40:09 AM

Latest Report: Mar 6, 2015 at 10:15 AM


Visibility: 10 mi

Pressure: 30.42 "Hg

Humidity: 39%

Dew point: 1 °F

Location of BreckenridgeLocation

Historic Weather in Breckenridge — Graph

°F

Breckenridge temperature yesterday

Maximum temperature yesterday: 23 °F (at 1:35 PM)
Minimum temperature yesterday: 14 °F (at 8:55 PM)
Average temperature yesterday: 18 °F

Past Weeks' High & Low Weather Summary

 TemperatureHumidityPressure
High34 °F (Feb 19, 11:15 AM)80% (Feb 20, 12:15 PM)30.41 "Hg (Feb 20, 12:15 PM)
Low5 °F (Feb 26, 4:15 AM)9% (Feb 24, 7:55 AM)29.63 "Hg (Feb 27, 1:35 PM)
Average19 °F67%29.92 "Hg
* Reported Feb 19 9:15 AM — Mar 6 9:35 AM, Breckenridge, Weather by CustomWeather, © 2015

Note: Actual official high and low records may vary slightly from our data, if they occured in-between our weather recording intervals... More about our weather records

Advertising

Breckenridge weather history for previous 24 hours

 ConditionsComfort  
Time TempWeatherWind HumidityBarometerVisibility
9:35 AM
Fri, Mar 6
23 °FSunny.No wind36%30.41 "Hg10 mi
9:15 AM21 °FSunny.6 mph38%30.41 "Hg10 mi
8:55 AM19 °FSunny.7 mph42%30.40 "Hg10 mi
8:35 AM19 °FSunny.10 mph42%30.38 "Hg10 mi
8:15 AM18 °FSunny.8 mph41%30.38 "Hg10 mi
7:55 AM18 °FSunny.9 mph38%30.37 "Hg10 mi
7:35 AM18 °FSunny.16 mph38%30.36 "Hg10 mi
7:15 AM16 °FSunny.18 mph41%30.36 "Hg10 mi
6:55 AM16 °FSunny.22 mph48%30.34 "Hg10 mi
6:35 AM16 °FSunny.22 mph48%30.34 "Hg10 mi
6:15 AM16 °FClear.21 mph48%30.34 "Hg10 mi
5:55 AM16 °FClear.10 mph48%30.34 "Hg10 mi
5:35 AM18 °FClear.N/A45%30.34 "Hg10 mi
5:15 AM16 °FClear.16 mph41%30.33 "Hg10 mi
4:55 AM16 °FClear.N/A41%30.33 "Hg10 mi
4:35 AM18 °FClear.20 mph45%30.33 "Hg10 mi
4:15 AM18 °FClear.20 mph45%30.33 "Hg10 mi
3:55 AM18 °FClear.20 mph45%30.32 "Hg10 mi
3:35 AM18 °FClear.16 mph45%30.32 "Hg10 mi
3:15 AM18 °FClear.21 mph41%30.31 "Hg10 mi
2:55 AM18 °FClear.25 mph41%30.32 "Hg10 mi
2:35 AM18 °FClear.21 mph38%30.33 "Hg10 mi
2:15 AM18 °FClear.24 mph38%30.33 "Hg10 mi
1:55 AM18 °FClear.28 mph38%30.33 "Hg10 mi
1:35 AM19 °FClear.25 mph35%30.33 "Hg10 mi
1:15 AM18 °FClear.25 mph35%30.33 "Hg10 mi
12:55 AM18 °FClear.24 mph35%30.33 "Hg10 mi
12:35 AM16 °FClear.17 mph37%30.33 "Hg10 mi
12:15 AM16 °FClear.20 mph37%30.33 "Hg10 mi
11:55 PM
Thu, Mar 5
16 °FClear.16 mph41%30.34 "Hg10 mi
11:35 PM18 °FClear.20 mph38%30.34 "Hg10 mi
11:15 PM16 °FClear.16 mph41%30.35 "Hg10 mi
10:55 PM16 °FClear.15 mph41%30.35 "Hg10 mi
10:35 PM16 °FClear.17 mph45%30.35 "Hg10 mi
10:15 PM14 °FClear.18 mph52%30.35 "Hg10 mi
9:55 PM14 °FClear.17 mph52%30.36 "Hg10 mi
9:35 PM14 °FClear.12 mph52%30.35 "Hg10 mi
9:15 PM16 °FClear.13 mph53%30.34 "Hg10 mi
8:55 PM14 °FClear.18 mph57%30.34 "Hg10 mi
8:35 PM16 °FClear.18 mph53%30.34 "Hg10 mi
7:55 PM16 °FPassing clouds.16 mph57%30.33 "Hg10 mi
7:35 PM18 °FPassing clouds.17 mph53%30.33 "Hg10 mi
7:15 PM16 °FClear.16 mph57%30.33 "Hg10 mi
6:55 PM16 °FClear.10 mph57%30.33 "Hg10 mi
6:35 PM18 °FClear.16 mph53%30.32 "Hg10 mi
6:15 PM18 °FClear.16 mph58%30.31 "Hg10 mi
5:55 PM18 °FSunny.9 mph58%30.31 "Hg10 mi
5:35 PM18 °FSunny.6 mph58%30.31 "Hg10 mi
5:15 PM19 °FSunny.No wind58%30.31 "Hg10 mi
4:55 PM21 °FSunny.16 mph49%30.29 "Hg10 mi
4:35 PM19 °FSunny.20 mph53%30.28 "Hg10 mi
4:15 PM23 °FSunny.20 mph46%30.27 "Hg10 mi
3:55 PM23 °FScattered clouds.14 mph46%30.27 "Hg10 mi
3:35 PM23 °FSunny.21 mph50%30.26 "Hg10 mi
2:55 PM23 °FSunny.21 mph46%30.25 "Hg10 mi
2:35 PM23 °FSunny.21 mph42%30.24 "Hg7 mi
1:55 PM23 °FSunny.17 mph42%30.24 "Hg10 mi
1:35 PM23 °FSunny.17 mph42%30.24 "Hg10 mi
1:15 PM21 °FSunny.23 mph42%30.23 "Hg7 mi
12:55 PM19 °FSunny.21 mph42%30.24 "Hg5 mi
12:35 PM19 °FSunny.20 mph42%30.25 "Hg4 mi
12:15 PM19 °FSunny.29 mph42%30.24 "Hg5 mi
11:55 AM19 °FSunny.23 mph38%30.24 "Hg10 mi
Weather by CustomWeather, © 2015

See weather overviewHow to use our weather pages